Flag for Malaysia

Past Weather in Johor Bahru, Johor, Malaysia — Yesterday and Last 2 Weeks

Now
79 °F

Thunderstorms. Passing clouds.


Feels Like: 82 °F
Forecast: 84 / 75 °F
Wind: 7 mph from Northwest

Location: Singapore / Paya Lebar
Current Time: Oct 26, 2020 at 7:11:02 am
Latest Report: Oct 26, 2020 at 6:00 am
Visibility: 3 mi
Pressure29.80 "Hg
Humidity: 89%
Dew Point: 75 °F
Location of Johor BahruLocation

Past Weather in Johor Bahru — Graph

°F

Johor Bahru Temperature Yesterday

Maximum temperature yesterday: 91 °F (at 1:00 pm)
Minimum temperature yesterday: 77 °F (at 5:00 am)
Average temperature yesterday: 84 °F

High & Low Weather Summary for the Past Weeks

 TemperatureHumidityPressure
High93 °F (Oct 17, 4:00 pm)94% (Oct 16, 2:00 am)29.89 "Hg (Oct 16, 2:00 am)
Low77 °F (Oct 11, 6:00 am)49% (Oct 25, 2:00 pm)29.65 "Hg (Oct 16, 4:00 pm)
Average85 °F76%29.77 "Hg
* Reported Oct 11 6:00 am — Oct 26 6:00 am, Johor Bahru. Weather by CustomWeather, © 2020

Note: Actual official high and low records may vary slightly from our data, if they occured in-between our weather recording intervals... More about our weather records

Johor Bahru Weather History for the Previous 24 Hours

Scroll right to see more
 ConditionsComfort  
Time TempWeatherWind HumidityBarometerVisibility
6:00 am
Mon, Oct 26
79 °FThunderstorms. Passing clouds.7 mph89%29.80 "Hg3 mi
5:36 am81 °FStrong thunderstorms. Passing clouds.9 mph84%29.80 "Hg3 mi
5:00 am82 °FThunderstorms. Passing clouds.7 mph84%29.80 "HgN/A
4:34 am82 °FThunderstorms. Passing clouds.5 mph84%29.77 "HgN/A
4:00 am82 °FPassing clouds.5 mph79%29.77 "HgN/A
3:00 am82 °FPassing clouds.5 mph79%29.77 "HgN/A
2:00 am84 °FPartly cloudy.5 mph74%29.80 "HgN/A
1:00 am86 °FPassing clouds.3 mph70%29.83 "HgN/A
12:00 am84 °FPassing clouds.No wind74%29.83 "HgN/A
11:00 pm
Sun, Oct 25
86 °FPassing clouds.No wind70%29.83 "HgN/A
10:00 pm86 °FPassing clouds.2 mph66%29.83 "HgN/A
9:00 pm86 °FPassing clouds.2 mph66%29.80 "HgN/A
8:00 pm88 °FPassing clouds.6 mph66%29.80 "HgN/A
7:00 pm88 °FPartly cloudy.5 mph62%29.77 "HgN/A
6:00 pm90 °FPartly sunny.7 mph59%29.74 "HgN/A
5:00 pm91 °FPartly sunny.8 mph52%29.74 "HgN/A
4:00 pm91 °FPartly sunny.10 mph49%29.74 "HgN/A
3:00 pm91 °FPartly sunny.10 mph49%29.77 "HgN/A
2:00 pm91 °FPartly sunny.12 mph49%29.80 "HgN/A
1:00 pm91 °FPartly sunny.9 mph56%29.83 "HgN/A
12:00 pm90 °FPartly sunny.12 mph59%29.83 "HgN/A
11:00 am86 °FBroken clouds.8 mph66%29.86 "HgN/A
10:00 am82 °FBroken clouds.3 mph79%29.89 "HgN/A
9:00 am79 °FPartly sunny.1 mph89%29.89 "HgN/A
8:00 am77 °FScattered clouds.2 mph89%29.86 "HgN/A
7:00 am77 °FLight rain. Partly sunny.No wind94%29.86 "HgN/A
Weather by CustomWeather, © 2020

See weather overview